This demonstration page uses our WeatherBlox Daily Observations layout. Learn more.

Left ArrowRight Arrow

Hourly Observations for August 11, 2019

Temp ( °F °C ) Dew Point ( °F °C ) Humidity (%) Winds ( mph kmh ) Pressure ( in mb ) Visibility ( mi km ) Precip ( " mm )
12:53 am 00:53 Clear 85 29.4 61 16.1 45 45 SE 9 15 29.79 1009 10 16 0.00 0.00
1:53 am 01:53 Clear 84 28.9 59 15 43 43 SE 10 17 29.79 1009 10 16 0.00 0.00
2:53 am 02:53 Clear 83 28.3 56 13.3 40 40 SE 10 17 29.78 1009 10 16 0.00 0.00
3:53 am 03:53 Clear 82 27.8 55 12.8 40 40 SE 8 13 29.79 1009 10 16 0.00 0.00
4:53 am 04:53 Clear 81 27.2 54 12.2 39 39 SE 8 13 29.79 1009 10 16 0.00 0.00
5:53 am 05:53 Clear 80 26.7 54 12.2 41 41 SE 10 17 29.79 1009 10 16 0.00 0.00
6:53 am 06:53 Clear 77 25 54 12.2 45 45 SE 7 11 29.82 1010 10 16 0.00 0.00
7:53 am 07:53 Sunny 77 25 55 12.8 47 47 SE 9 15 29.84 1011 10 16 0.00 0.00
8:53 am 08:53 Sunny 82 27.8 57 13.9 42 42 SE 15 24 29.85 1011 10 16 0.00 0.00
9:53 am 09:53 Sunny 86 30 57 13.9 37 37 SE 12 19 29.86 1011 10 16 0.00 0.00
10:53 am 10:53 Sunny 91 32.8 57 13.9 32 32 SE 7 11 29.86 1011 10 16 0.00 0.00
11:53 am 11:53 Sunny 95 35 57 13.9 28 28 SE 8 13 29.85 1011 10 16 0.00 0.00
12:53 pm 12:53 Sunny 97 36.1 56 13.3 25 25 VRB 5 7 29.83 1010 10 16 0.00 0.00
1:53 pm 13:53 Sunny 101 38.3 55 12.8 22 22 undefined N/A 29.80 1009 10 16 0.00 0.00
2:53 pm 14:53 Sunny 102 38.9 53 11.7 19 19 VRB 5 7 29.76 1008 10 16 0.00 0.00
3:53 pm 15:53 Partly Cloudy 104 40 52 11.1 18 18 S 8 13 29.73 1007 10 16 0.00 0.00
4:53 pm 16:53 Sunny 103 39.4 50 10 17 17 SW 8 13 29.72 1006 10 16 0.00 0.00
5:53 pm 17:53 Sunny 102 38.9 50 10 17 17 S 8 13 29.71 1006 10 16 0.00 0.00
6:53 pm 18:53 Sunny 102 38.9 49 9.4 17 17 S 7 11 29.70 1006 10 16 0.00 0.00
7:53 pm 19:53 Mostly Sunny 98 36.7 52 11.1 21 21 Calm 29.70 1006 10 16 0.00 0.00
8:42 pm 20:42 Mostly Cloudy with Thunderstorms 93 33.9 54 12.2 27 27 SW 30 48 29.67 1005 9 14 0.00 0.00
8:49 pm 20:49 Cloudy with Thunderstorms 88 31 55 13 33 33 SW 40 65 29.70 1006 3 4 0.00 0.00
8:53 pm 20:53 Cloudy with Nearby Thunderstorms 86 30 57 13.9 37 37 SW 43 69 29.76 1008 2 3 0.00 0.00
8:55 pm 20:55 Very Windy with Storms Likely 84 28.9 58 14.4 41 41 SW 41 67 29.72 1007 2 3 0.00 0.00

Powered by AerisWeather